Home   Weather   Hilo   Past weeks

Flag for USA Past Weather in Hilo, Hawaii, USA — Yesterday and Last 2 Weeks

Now
71 °F

Passing clouds.


Feels Like: 68 °F
Forecast: 71 / 84 °F
Wind: 7 mph from Southwest

Location: Hilo International Airport

Current Time: Jul 23, 2017 at 2:39:37 am

Latest Report: Jul 23, 2017 at 1:53 am


Visibility: 10 mi

Pressure: 29.96 "Hg

Humidity: 90%

Dew Point: 68 °F

Location of HiloLocation

Past Weather in Hilo — Graph

°F

Hilo Temperature Yesterday

Maximum temperature yesterday: 84 °F (at 2:01 pm)
Minimum temperature yesterday: 71 °F (at 5:53 am)
Average temperature yesterday: 77 °F

High & Low Weather Summary for the Past Weeks

 TemperatureHumidityPressure
High87 °F (Jul 13, 12:53 pm)100% (Jul 10, 11:02 pm)30.12 "Hg (Jul 10, 11:02 pm)
Low67 °F (Jul 8, 5:53 am)48% (Jul 13, 12:53 pm)29.94 "Hg (Jul 22, 4:53 pm)
Average76 °F81%30.04 "Hg
* Reported Jul 8 12:53 am — Jul 23 12:53 am, Hilo. Weather by CustomWeather, © 2017

Note: Actual official high and low records may vary slightly from our data, if they occured in-between our weather recording intervals... More about our weather records

Advertising

Hilo Weather History for the Previous 24 Hours

Scroll right to see more
 ConditionsComfort  
Time TempWeatherWind HumidityBarometerVisibility
12:53 am
Sun, Jul 23
71 °FOvercast.6 mph90%29.98 "Hg10 mi
11:53 pm
Sat, Jul 22
72 °FMostly cloudy.9 mph93%30.00 "Hg10 mi
11:33 pm73 °FMostly cloudy.9 mph94%30.01 "Hg10 mi
11:05 pm75 °FHeavy rain. Fog.5 mph94%30.01 "Hg2 mi
10:53 pm75 °FLight rain. Passing clouds.No wind90%30.01 "Hg8 mi
9:53 pm76 °FPassing clouds.5 mph91%30.00 "Hg10 mi
8:53 pm77 °FPartly cloudy.No wind88%30.00 "Hg10 mi
7:53 pm77 °FPassing clouds.3 mph85%29.98 "Hg10 mi
6:53 pm78 °FMore clouds than sun.6 mph84%29.96 "Hg10 mi
5:53 pm79 °FScattered clouds.9 mph79%29.95 "Hg10 mi
5:21 pm81 °FBroken clouds.8 mph74%29.95 "Hg10 mi
4:53 pm81 °FPartly sunny.10 mph74%29.94 "Hg10 mi
3:53 pm81 °FPartly sunny.9 mph74%29.95 "Hg10 mi
2:53 pm83 °FScattered clouds.12 mph70%29.96 "Hg10 mi
2:18 pm82 °FScattered clouds.9 mph70%29.97 "Hg10 mi
2:01 pm84 °FBroken clouds.12 mph66%29.97 "Hg10 mi
1:53 pm84 °FBroken clouds.12 mph67%29.97 "Hg10 mi
1:27 pm82 °FMostly cloudy.13 mph74%29.98 "Hg10 mi
12:53 pm84 °FPartly sunny.9 mph67%29.98 "Hg10 mi
11:53 am82 °FOvercast.6 mph72%29.99 "Hg10 mi
10:53 am80 °FMostly cloudy.8 mph74%30.01 "Hg10 mi
10:12 am81 °FCloudy.6 mph70%30.01 "Hg10 mi
9:53 am81 °FMostly cloudy.5 mph69%30.01 "Hg10 mi
9:23 am81 °FMostly cloudy.5 mph70%30.02 "Hg10 mi
8:53 am79 °FPartly sunny.No wind74%30.01 "Hg10 mi
8:41 am79 °FMostly cloudy.No wind74%30.01 "Hg10 mi
7:53 am77 °FPartly sunny.8 mph82%30.00 "Hg10 mi
6:53 am72 °FPartly sunny.7 mph97%29.99 "Hg10 mi
6:32 am72 °FLight rain. More clouds than sun.5 mph100%30.00 "Hg10 mi
5:53 am71 °FLight rain. Overcast.5 mph96%29.98 "Hg10 mi
5:17 am72 °FLight rain. Overcast.5 mph94%29.98 "Hg5 mi
5:06 am72 °FLight rain. Mostly cloudy.5 mph94%29.98 "Hg2 mi
4:53 am72 °FLight rain. Overcast.5 mph93%29.96 "Hg4 mi
4:37 am72 °FLight rain. Mostly cloudy.5 mph93%29.96 "Hg10 mi
3:53 am72 °FLight rain. Mostly cloudy.6 mph93%29.95 "Hg10 mi
3:31 am72 °FLight rain. Mostly cloudy.3 mph94%29.96 "Hg10 mi
2:53 am72 °FLight rain. Mostly cloudy.9 mph93%29.96 "Hg10 mi
2:40 am72 °FLight rain. Overcast.9 mph94%29.96 "Hg9 mi
2:20 am72 °FLight rain. Mostly cloudy.6 mph94%29.97 "Hg3 mi
Weather by CustomWeather, © 2017

See weather overviewHow to use our weather pages